{"data":{"norad_id":58231,"epoch":"2026-09-20T07:34:04.434240Z","epoch_age_seconds":159632,"freshness":"FRESH","line1":"1 58231U 23171B   26263.31532910 -.00001678  00000+0 -51473-4 0  9993","line2":"2 58231  43.0089 265.7870 0002557 285.1436  74.9133 15.27569125159508","mean_motion":15.27569125,"eccentricity":0.0002557,"inclination_deg":43.0089,"raan_deg":265.787,"arg_perigee_deg":285.1436,"mean_anomaly_deg":74.9133,"bstar":-5.1473e-5,"rev_number":15950,"period_min":94.267419813162,"perigee_km":481.32724628377,"apogee_km":484.83607350644,"semimajor_km":6861.2186598951,"source":"CELESTRAK","updated_at":"2026-09-21T09:00:33.836177Z"}}